North Bennington, VT

5:05 PM EST on December 04, 2016 (GMT -0500)
Morse State

Weather History for KDDH - April, 2013

Change the Weather History Date:

Monday, April 8, 2013

  Actual Average Record
Temperature  
Mean Temperature 51 °F 43 °F  
Max Temperature 61 °F 54 °F 66 °F (1999)
Min Temperature 41 °F 32 °F 21 °F (2007)
Degree Days  
Heating Degree Days 14 22  
Month to date heating degree days 208 191  
Since 1 July heating degree days 6009 6426  
Cooling Degree Days 0 0  
Month to date cooling degree days 0 0  
Year to date cooling degree days 0 0  
Moisture  
Dew Point 32 °F    
Average Humidity 50    
Maximum Humidity 70    
Minimum Humidity 29    
Precipitation  
Precipitation T in 0.13 in 0.57 in (2001)
Month to date precipitation 0.13 1.00  
Year to date precipitation 4.07 9.14  
Sea Level Pressure  
Sea Level Pressure 30.04 in    
Wind  
Wind Speed 5 mph (West)    
Max Wind Speed 18 mph    
Max Gust Speed 26 mph    
Visibility 10 miles    
Events Rain    
T = Trace of Precipitation, MM = Missing Value Source: NWS Daily Summary

Daily Weather History Graph

Daily Weather History Graph

Search for Another Location

Airport or City:

Trip Planner

Search our weather history database for the weather conditions in past years. The results will help you decide how hot, cold, wet, or windy it might be!

Date:

Astronomy

Apr. 08, 2013 Rise Set
Actual Time 6:22 AM EDT 7:27 PM EDT
Civil Twilight 5:53 AM EDT 7:56 PM EDT
Nautical Twilight 5:19 AM EDT 8:31 PM EDT
Astronomical Twilight 4:42 AM EDT 9:07 PM EDT
Moon 5:13 AM EDT (4/8) 5:57 PM EDT (4/8)
Length of Visible Light 14h 02m
Length of Day
13h 04m
Waning Crescent, 3% of the Moon is Illuminated
Apr 8
Waning Crescent
Apr 10
New
Apr 18
First Quarter
Apr 25
Full
May 2
Last Quarter

Hourly Weather History & Observations

Time (EDT) Temp. Windchill Dew Point Humidity Pressure Visibility Wind Dir Wind Speed Gust Speed Precip Events Conditions
12:54 AM 50.0 °F - 37.0 °F 61% 29.97 in 10.0 mi WSW 8.1 mph - N/A   Mostly Cloudy
1:54 AM 48.0 °F - 37.0 °F 66% 29.97 in 10.0 mi WSW 8.1 mph - N/A   Partly Cloudy
2:54 AM 46.9 °F - 36.0 °F 66% 29.98 in 10.0 mi WSW 8.1 mph 16.1 mph N/A   Mostly Cloudy
3:54 AM 45.0 °F 40.6 °F 34.0 °F 65% 29.99 in 10.0 mi West 8.1 mph - N/A   Mostly Cloudy
4:54 AM 44.1 °F 40.1 °F 33.1 °F 65% 30.01 in 10.0 mi SW 6.9 mph - N/A   Mostly Cloudy
5:54 AM 42.1 °F 38.4 °F 32.0 °F 67% 30.03 in 10.0 mi Variable 5.8 mph - N/A   Clear
6:54 AM 41.0 °F 38.0 °F 32.0 °F 70% 30.05 in 10.0 mi SW 4.6 mph - N/A   Partly Cloudy
7:54 AM 42.1 °F 40.2 °F 32.0 °F 67% 30.08 in 10.0 mi West 3.5 mph - N/A   Overcast
8:54 AM 43.0 °F 40.3 °F 32.0 °F 65% 30.09 in 10.0 mi Variable 4.6 mph - N/A   Overcast
9:54 AM 46.0 °F - 32.0 °F 58% 30.09 in 10.0 mi Calm Calm - N/A   Overcast
10:04 AM 46.4 °F 41.5 °F 30.2 °F 53% 30.08 in 10.0 mi NNW 10.4 mph - N/A   Overcast
10:29 AM 46.4 °F 42.4 °F 30.2 °F 53% 30.10 in 10.0 mi NNW 8.1 mph 16.1 mph N/A   Overcast
10:54 AM 48.0 °F - 32.0 °F 54% 30.11 in 10.0 mi NW 6.9 mph - N/A   Overcast
11:54 AM 50.0 °F - 32.0 °F 50% 30.09 in 10.0 mi NW 8.1 mph - N/A   Clear
12:54 PM 53.1 °F - 32.0 °F 45% 30.09 in 10.0 mi North 4.6 mph - N/A   Unknown
1:54 PM 55.0 °F - 30.0 °F 38% 30.09 in 10.0 mi Variable 3.5 mph - N/A   Clear
2:54 PM 57.9 °F - 30.0 °F 35% 30.06 in 10.0 mi Calm Calm - N/A   Clear
3:54 PM 59.0 °F - 28.9 °F 32% 30.05 in 10.0 mi Calm Calm - N/A   Clear
4:54 PM 60.1 °F - 28.0 °F 30% 30.01 in 10.0 mi Calm Calm - N/A   Clear
5:54 PM 59.0 °F - 28.9 °F 32% 30.03 in 10.0 mi SW 3.5 mph - N/A   Clear
6:54 PM 57.0 °F - 32.0 °F 39% 30.02 in 10.0 mi Calm Calm - N/A   Clear
7:54 PM 51.1 °F - 34.0 °F 52% 30.03 in 10.0 mi Calm Calm - N/A   Clear
8:54 PM 51.1 °F - 32.0 °F 48% 30.03 in 10.0 mi Calm Calm - N/A   Partly Cloudy
9:54 PM 53.1 °F - 33.1 °F 47% 30.01 in 10.0 mi East 5.8 mph - 0.00 in Rain Light Rain
10:54 PM 55.0 °F - 30.9 °F 40% 29.98 in 10.0 mi NNE 3.5 mph - 0.00 in   Overcast
11:54 PM 59.0 °F - 32.0 °F 36% 29.94 in 10.0 mi SSE 12.7 mph - N/A   Overcast